• en France
  • Liste des pays
  • À 7 jours
  • Température de l'eau
  • Carte satellitaire
  • Carte météo
  • Widgets météo
  • user-avatar
    Se connecter

    Météo par heure à Zherebino

    Ce jour, 13 Novembre, Mardi

    Heure Température Précipitation Vent Pression Humidité
    00:00 -1°C° 0.2 mm 6 m/s 762 mmHg 77%
    01:00 -1°C° 0.2 mm 6 m/s 761 mmHg 78%
    02:00 -1°C° 0.2 mm 6 m/s 761 mmHg 79%
    03:00 -1°C° 0.6 mm 7 m/s 761 mmHg 79%
    04:00 -1°C° 0.6 mm 7 m/s 760 mmHg 80%
    05:00 -2°C° 0.6 mm 7 m/s 760 mmHg 80%
    06:00 -1°C° 0.1 mm 7 m/s 759 mmHg 80%
    07:00 -1°C° 0.1 mm 7 m/s 759 mmHg 79%
    08:00 -1°C° 0.1 mm 7 m/s 759 mmHg 79%
    09:00 -1°C° 0 mm 7 m/s 759 mmHg 78%
    10:00 -1°C° 0 mm 7 m/s 758 mmHg 76%
    11:00 0°C° 0 mm 7 m/s 758 mmHg 75%
    12:00 0°C° 0 mm 7 m/s 758 mmHg 75%
    13:00 0°C° 0 mm 7 m/s 757 mmHg 75%
    14:00 +2°C° 0 mm 7 m/s 757 mmHg 75%
    15:00 +2°C° 0.6 mm 6 m/s 757 mmHg 77%
    16:00 +2°C° 0.6 mm 6 m/s 756 mmHg 80%
    17:00 +2°C° 0.6 mm 6 m/s 756 mmHg 82%
    18:00 +2°C° 0.4 mm 6 m/s 756 mmHg 82%
    19:00 +2°C° 0.4 mm 6 m/s 755 mmHg 83%
    20:00 +2°C° 0.4 mm 5 m/s 755 mmHg 83%
    21:00 +2°C° 1.1 mm 5 m/s 755 mmHg 85%
    22:00 +2°C° 1.1 mm 5 m/s 754 mmHg 86%
    23:00 +2°C° 1.1 mm 5 m/s 754 mmHg 88%

    Demain, 14 Novembre, Mercredi

    Heure Température Précipitation Vent Pression Humidité
    00:00 +2°C° 2 mm 5 m/s 753 mmHg 88%
    01:00 +2°C° 2 mm 5 m/s 753 mmHg 89%
    02:00 +2°C° 2 mm 5 m/s 752 mmHg 89%
    03:00 +1°C° 1.2 mm 4 m/s 752 mmHg 89%
    04:00 +1°C° 1.2 mm 4 m/s 752 mmHg 90%
    05:00 +2°C° 1.2 mm 3 m/s 751 mmHg 90%
    06:00 +2°C° 0.5 mm 3 m/s 751 mmHg 91%
    07:00 +3°C° 0.5 mm 2 m/s 752 mmHg 91%
    08:00 +3°C° 0.5 mm 2 m/s 752 mmHg 92%
    09:00 +3°C° 0.4 mm 2 m/s 752 mmHg 92%
    10:00 +3°C° 0.4 mm 2 m/s 752 mmHg 92%
    11:00 +4°C° 0.4 mm 1 m/s 753 mmHg 92%
    12:00 +4°C° 0.4 mm 1 m/s 753 mmHg 92%
    13:00 +5°C° 0.4 mm 1 m/s 753 mmHg 92%
    14:00 +5°C° 0.4 mm 1 m/s 754 mmHg 92%
    15:00 +5°C° 0.3 mm 1 m/s 754 mmHg 92%
    16:00 +5°C° 0.3 mm 1 m/s 755 mmHg 93%
    17:00 +5°C° 0.3 mm 1 m/s 755 mmHg 94%
    18:00 +5°C° 0.1 mm 1 m/s 756 mmHg 94%
    19:00 +5°C° 0.1 mm 1 m/s 756 mmHg 95%
    20:00 +5°C° 0.1 mm 1 m/s 757 mmHg 95%
    21:00 +5°C° 0 mm 1 m/s 758 mmHg 95%
    22:00 +5°C° 0 mm 1 m/s 758 mmHg 95%
    23:00 +5°C° 0 mm 1 m/s 759 mmHg 95%

    Après-demain, 15 Novembre, Jeudi

    Heure Température Précipitation Vent Pression Humidité
    00:00 +5°C° 0 mm 1 m/s 759 mmHg 96%
    01:00 +5°C° 0 mm 1 m/s 760 mmHg 96%
    02:00 +5°C° 0 mm 1 m/s 760 mmHg 96%
    03:00 +5°C° 0 mm 1 m/s 760 mmHg 95%
    04:00 +5°C° 0 mm 1 m/s 761 mmHg 95%
    05:00 +4°C° 0 mm 1 m/s 761 mmHg 95%
    06:00 +4°C° 0 mm 1 m/s 762 mmHg 95%
    07:00 +3°C° 0 mm 0 m/s 762 mmHg 94%
    08:00 +3°C° 0 mm 0 m/s 763 mmHg 94%
    09:00 +4°C° 0 mm 0 m/s 763 mmHg 92%
    10:00 +5°C° 0 mm 0 m/s 763 mmHg 90%
    11:00 +5°C° 0 mm 0 m/s 764 mmHg 87%
    12:00 +5°C° 0 mm 0 m/s 764 mmHg 87%
    13:00 +6°C° 0 mm 0 m/s 764 mmHg 86%
    14:00 +7°C° 0 mm 1 m/s 764 mmHg 85%
    15:00 +6°C° 0 mm 1 m/s 765 mmHg 88%
    16:00 +5°C° 0 mm 1 m/s 765 mmHg 90%
    17:00 +5°C° 0 mm 1 m/s 765 mmHg 92%
    18:00 +4°C° 0 mm 1 m/s 765 mmHg 92%
    19:00 +4°C° 0 mm 1 m/s 766 mmHg 93%
    20:00 +4°C° 0 mm 1 m/s 766 mmHg 93%
    21:00 +3°C° 0 mm 1 m/s 766 mmHg 94%
    22:00 +2°C° 0 mm 2 m/s 767 mmHg 94%
    23:00 +2°C° 0 mm 2 m/s 767 mmHg 94%

    16 Novembre, Vendredi

    Heure Température Précipitation Vent Pression Humidité
    00:00 +2°C° 0 mm 2 m/s 767 mmHg 94%
    01:00 +2°C° 0 mm 2 m/s 767 mmHg 94%
    02:00 +1°C° 0 mm 2 m/s 767 mmHg 94%
    03:00 +1°C° 0 mm 2 m/s 767 mmHg 94%
    04:00 +1°C° 0 mm 2 m/s 767 mmHg 94%
    05:00 +1°C° 0 mm 2 m/s 767 mmHg 94%
    06:00 +1°C° 0 mm 2 m/s 768 mmHg 94%
    07:00 +1°C° 0 mm 2 m/s 768 mmHg 94%
    08:00 +1°C° 0 mm 2 m/s 768 mmHg 93%
    09:00 +1°C° 0 mm 3 m/s 768 mmHg 92%
    10:00 +2°C° 0 mm 3 m/s 768 mmHg 90%
    11:00 +3°C° 0 mm 3 m/s 768 mmHg 88%
    12:00 +3°C° 0 mm 3 m/s 768 mmHg 88%
    13:00 +3°C° 0 mm 3 m/s 768 mmHg 88%
    14:00 +3°C° 0 mm 3 m/s 768 mmHg 87%
    15:00 +3°C° 0.1 mm 3 m/s 768 mmHg 89%
    16:00 +3°C° 0.1 mm 3 m/s 768 mmHg 90%
    17:00 +4°C° 0.1 mm 2 m/s 768 mmHg 92%
    18:00 +4°C° 0.1 mm 2 m/s 768 mmHg 92%
    19:00 +4°C° 0.1 mm 2 m/s 768 mmHg 93%
    20:00 +4°C° 0.1 mm 2 m/s 768 mmHg 93%
    21:00 +4°C° 0.1 mm 2 m/s 768 mmHg 94%
    22:00 +4°C° 0.1 mm 2 m/s 768 mmHg 94%
    23:00 +4°C° 0.1 mm 2 m/s 768 mmHg 95%

    17 Novembre, Samedi

    Heure Température Précipitation Vent Pression Humidité
    00:00 +4°C° 0 mm 2 m/s 768 mmHg 95%
    01:00 +4°C° 0 mm 2 m/s 768 mmHg 95%
    02:00 +4°C° 0 mm 2 m/s 768 mmHg 96%
    03:00 +5°C° 0 mm 2 m/s 768 mmHg 96%
    04:00 +5°C° 0 mm 2 m/s 768 mmHg 96%
    05:00 +5°C° 0 mm 2 m/s 767 mmHg 96%
    06:00 +5°C° 0 mm 2 m/s 767 mmHg 95%
    07:00 +5°C° 0 mm 2 m/s 767 mmHg 95%
    08:00 +5°C° 0 mm 2 m/s 767 mmHg 95%
    09:00 +4°C° 0 mm 3 m/s 767 mmHg 93%
    10:00 +5°C° 0 mm 3 m/s 766 mmHg 91%
    11:00 +5°C° 0 mm 3 m/s 766 mmHg 89%
    12:00 +5°C° 0 mm 4 m/s 766 mmHg 89%
    13:00 +5°C° 0 mm 4 m/s 765 mmHg 88%
    14:00 +5°C° 0 mm 4 m/s 765 mmHg 87%
    15:00 +5°C° 0 mm 4 m/s 764 mmHg 88%
    16:00 +5°C° 0 mm 4 m/s 764 mmHg 88%
    17:00 +5°C° 0 mm 4 m/s 764 mmHg 88%
    18:00 +5°C° 0 mm 4 m/s 763 mmHg 89%
    19:00 +5°C° 0 mm 4 m/s 763 mmHg 90%
    20:00 +4°C° 0 mm 4 m/s 762 mmHg 91%
    21:00 +4°C° 0 mm 4 m/s 762 mmHg 91%
    22:00 +4°C° 0 mm 4 m/s 761 mmHg 90%
    23:00 +4°C° 0 mm 4 m/s 761 mmHg 90%

    18 Novembre, Dimanche

    Heure Température Précipitation Vent Pression Humidité
    00:00 +4°C° 0 mm 4 m/s 760 mmHg 89%
    01:00 +3°C° 0 mm 4 m/s 760 mmHg 89%
    02:00 +3°C° 0 mm 4 m/s 759 mmHg 89%
    03:00 +3°C° 0 mm 4 m/s 759 mmHg 88%
    04:00 +3°C° 0 mm 4 m/s 758 mmHg 88%
    05:00 +2°C° 0 mm 5 m/s 758 mmHg 87%
    06:00 +2°C° 0.1 mm 5 m/s 758 mmHg 85%
    07:00 +2°C° 0.1 mm 5 m/s 758 mmHg 83%
    08:00 +2°C° 0.1 mm 5 m/s 757 mmHg 81%
    09:00 +2°C° 0.1 mm 5 m/s 757 mmHg 80%
    10:00 +3°C° 0.1 mm 5 m/s 757 mmHg 79%
    11:00 +3°C° 0.1 mm 5 m/s 757 mmHg 78%
    12:00 +3°C° 0.1 mm 6 m/s 757 mmHg 78%
    13:00 +4°C° 0.1 mm 6 m/s 757 mmHg 77%
    14:00 +4°C° 0.1 mm 6 m/s 756 mmHg 76%
    15:00 +4°C° 0.1 mm 6 m/s 756 mmHg 76%
    16:00 +4°C° 0.1 mm 6 m/s 756 mmHg 77%
    17:00 +4°C° 0.1 mm 6 m/s 756 mmHg 77%
    18:00 +4°C° 0.1 mm 6 m/s 757 mmHg 77%
    19:00 +4°C° 0.1 mm 6 m/s 757 mmHg 78%
    20:00 +4°C° 0.1 mm 6 m/s 757 mmHg 79%
    21:00 +3°C° 0.1 mm 6 m/s 757 mmHg 79%
    22:00 +3°C° 0.1 mm 6 m/s 758 mmHg 79%
    23:00 +3°C° 0.1 mm 6 m/s 758 mmHg 79%
    Voir plus